Location: *
(19.9231°S, 43.9450°W)
Time: 20:46:30
(UTC+00:00)

Daily predictions for brighter satellites

Satellite Brightness Start Highest point End
(mag) Time Altitude Azimuth Time Altitude Azimuth Time Altitude Azimuth
Yuri Rocket 3.2 20:49:20 10° WSW 20:53:33 62° SSE 20:58:38 10° E
Cosmos 2219 4.4 20:54:33 10° NNE 20:58:55 23° ENE 21:03:17 10° SE
Cosmos 2297 Rocket 4.0 20:59:28 10° ENE 21:00:53 11° E 21:02:18 10° E
Cosmos 1900 4.4 20:56:33 10° SSW 21:01:36 76° ESE 21:06:41 10° NNE
Cosmos 1703 3.2 21:05:09 10° S 21:09:10 78° E 21:13:08 10° N
Centaur D-1AR AC-40 1.7 21:06:27 10° WNW 21:10:02 71° NNE 21:14:31 11° E
COBE Rocket 3.7 21:09:36 10° NNE 21:14:15 83° ESE 21:18:57 10° S
NOSS 3-1 (C) 3.1 21:12:28 10° SSW 21:18:06 61° ESE 21:23:16 10° NE
Envisat 3.8 21:15:10 10° SE 21:19:40 31° E 21:24:07 10° NNE
Palapa 6 Rocket 3.6 21:18:07 10° WSW 21:23:11 75° S 21:28:32 15° E
Cosmos 2360 Rocket 2.5 21:18:59 10° S 21:24:24 43° ESE 21:29:45 10° NE
ASTRO E2 2.7 21:21:42 10° NW 21:25:40 71° NNE 21:28:21 20° ESE
Okean-O 3.4 21:25:30 10° S 21:29:51 54° WSW 21:34:11 10° NNW
GPS 2-14 Rocket1 4.3 21:26:13 10° W 21:29:55 31° NNW 21:33:33 10° NE
H-2A R/B 3.2 21:27:45 10° S 21:31:38 63° WSW 21:35:29 10° NNW
Hubble Space Telescope 1.3 21:31:52 10° W 21:35:54 48° SSW 21:38:11 23° SE
Cosmos 2056 Rocket 4.2 21:31:33 10° NNW 21:36:51 58° WSW 21:42:08 10° S
OAO 3 Rocket 3.7 21:32:47 10° WNW 21:37:26 50° SSW 21:40:27 20° SE
CZ-4 R/B 4.4 21:37:06 10° SSE 21:41:13 60° E 21:45:16 10° N
Cosmos 1076 Rocket 3.4 21:37:49 10° S 21:42:11 71° E 21:46:32 10° N
CZ-3C R/B 2.8 21:22:18 10° WNW 21:43:56 69° N 21:46:23 26° E
Cosmos 1300 3.9 21:43:58 10° NNW 21:47:36 43° W 21:51:18 10° S
YAOGAN 1 2.6 21:48:13 20° SSE 21:51:02 57° E 21:55:16 10° N
Cosmos 2219 Rocket 4.2 21:47:33 10° SSE 21:48:00 12° SSE 21:48:00 12° SSE
TIMED 4.4 21:49:54 10° SSW 21:54:18 87° ESE 21:58:39 10° NNE
Cosmos 2322 Rocket 4.0 21:52:23 10° SW 21:57:25 33° WNW 22:02:27 10° NNW
USA 234 3.3 21:53:09 18° SE 21:58:15 85° SW 22:04:49 10° NW
Cosmos 1455 4.1 21:57:40 10° NNE 21:58:40 16° NNE 21:58:40 16° NNE
Cosmos 1867 4.1 21:56:08 10° S 22:00:39 36° SE 22:00:39 36° SE
Ariane Rocket 3.6 22:01:32 35° ENE 22:01:32 35° ENE 22:05:53 10° NNE
NOSS 3-1 (A) 3.0 21:55:40 10° SSW 22:01:20 90° ESE 22:06:35 10° NNE
Stardust Del rocket 4.3 21:56:23 10° W 22:02:41 50° NNW 22:04:10 31° NE
PSLV R/B 3.8 22:00:26 10° WSW 22:03:00 44° NW 22:03:00 44° NW
Cosmos 407 Rocket 3.7 21:58:51 10° S 22:03:49 44° ESE 22:08:46 10° NE
Cosmos 2058 2.7 22:01:21 10° S 22:05:33 81° E 22:09:43 10° N
Cosmos 2333 4.4 22:01:21 10° S 22:06:58 48° ESE 22:12:29 10° NE
Atlas Centaur 2 2.6 22:05:11 10° WSW 22:11:36 82° SSE 22:15:02 36° ENE
NOSS 2-3 (E) 3.8 22:07:36 10° SSW 22:13:07 61° ESE 22:13:19 60° ESE
FengYun 1-2 T 4.3 22:07:55 10° S 22:13:33 78° WSW 22:19:04 10° NNW
GPS 2-15 Rocket1 3.1 22:09:22 10° W 22:14:08 74° N 22:14:46 63° NE
Cosmos 2333 Rocket 4.0 22:09:58 10° S 22:11:16 16° S 22:11:16 16° S
NOSS 2-3 (D) 3.9 22:10:36 10° SSW 22:15:51 59° SE 22:15:51 59° SE
CZ-4 R/B 2.9 22:14:25 10° S 22:18:18 37° WSW 22:22:10 10° NW
Shenzhou-11 Module 4.3 22:16:11 10° NW 22:17:20 22° NW 22:17:20 22° NW
Sakura Rocket 2.9 22:16:05 10° WSW 22:20:01 82° NNW 22:20:02 82° NNW
Cosmos 2227 Rocket 2.0 22:17:04 10° NNW 22:22:43 83° ENE 22:24:01 55° SSE
Cosmos 2322 3.6 22:17:25 10° SSW 22:23:07 86° WNW 22:28:46 10° NNE
In-Cosmos 22 Rocket 3.9 22:18:48 10° S 22:24:08 74° E 22:29:28 10° NNE
Delta 128 3.7 22:20:21 10° WNW 22:24:35 67° NNW 22:24:35 67° NNW
YAOGAN 6 3.8 22:28:08 41° WSW 22:28:17 41° WSW 22:31:45 10° NNW
BREEZE M DEB (TANK) 4.0 22:09:31 10° SW 22:30:45 83° SE 22:32:45 48° NE
Cosmos 1072 Rocket 4.3 22:28:16 10° S 22:34:45 72° E 22:40:43 10° N
Cosmos 2297 Rocket 2.7 22:38:50 10° NNW 22:44:20 56° WSW 22:45:23 49° SSW
CZ-3 Stage 3 4.4 23:26:38 10° WSW 23:32:59 26° SW 23:32:59 26° SW
